Weather History for Luqa, Malta

Change the Weather History Date:

Tuesday, May 28, 2013

  Actual Average Record
Temperature  
Mean Temperature 70 °F -  
Max Temperature 75 °F 81 °F 82 °F (2005)
Min Temperature 62 °F 65 °F 59 °F (2003)
Cooling Degree Days 4    
Growing Degree Days 20 (Base 50)    
Moisture  
Dew Point 60 °F    
Average Humidity 77    
Maximum Humidity 94    
Minimum Humidity 52    
Precipitation  
Precipitation 0.00 in 0.00 in - ()
Sea Level Pressure  
Sea Level Pressure 29.68 in    
Wind  
Wind Speed 15 mph ()    
Max Wind Speed 26 mph    
Max Gust Speed 38 mph    
Visibility 6.0 miles    
Events      
Averages and records for this station are not official NWS values.
T = Trace of Precipitation, MM = Missing Value Source: Averaged Metar Reports

Daily Weather History Graph

Daily Weather History Graph

Search for Another Location

Airport:

Trip Planner

Search our weather history database for the weather conditions in past years. The results will help you decide how hot, cold, wet, or windy it might be!

Date:

Astronomy

May. 28, 2013 Rise Set
Actual Time 5:48 AM CEST 8:10 PM CEST
Civil Twilight 5:19 AM CEST 8:39 PM CEST
Nautical Twilight 4:43 AM CEST 9:16 PM CEST
Astronomical Twilight 4:03 AM CEST 9:55 PM CEST
Moon 11:25 PM CEST (5/28) 9:13 AM CEST (5/28)
Length of Visible Light 15h 20m
Length of Day
14h 21m
Waning Gibbous, 85% of the Moon is Illuminated
May 28
Waning Gibbous
May 31
Last Quarter
Jun 8
New
Jun 16
First Quarter
Jun 23
Full

Hourly Weather History & Observations

Time (CEST) Temp. Dew Point Humidity Pressure Visibility Wind Dir Wind Speed Gust Speed Precip Events Conditions
12:15 AM 64.4 °F 62.6 °F 94% 29.86 in 5.0 mi ESE 12.7 mph - N/A   Mostly Cloudy
12:45 AM 64.4 °F 62.6 °F 94% 29.86 in 5.0 mi East 12.7 mph - N/A   Mostly Cloudy
1:15 AM 64.4 °F 62.6 °F 94% 29.83 in 5.0 mi East 15.0 mph - N/A   Mostly Cloudy
1:45 AM 64.4 °F 62.6 °F 94% 29.83 in 5.0 mi East 13.8 mph - N/A   Mostly Cloudy
2:00 AM 65 °F 64 °F 93% 29.82 in 5 mi East 13.8 mph - -  
2:15 AM 64.4 °F 62.6 °F 94% 29.80 in 5.0 mi East 13.8 mph - N/A   Overcast
2:45 AM 64.4 °F 62.6 °F 94% 29.80 in 5.0 mi ESE 16.1 mph 27.6 mph N/A   Overcast
3:15 AM 64.4 °F 62.6 °F 94% 29.77 in 5.0 mi ESE 17.3 mph - N/A   Overcast
3:45 AM 64.4 °F 62.6 °F 94% 29.77 in 5.0 mi ESE 17.3 mph - N/A   Overcast
4:15 AM 64.4 °F 62.6 °F 94% 29.74 in 5.0 mi ESE 17.3 mph - N/A   Overcast
4:45 AM 64.4 °F 62.6 °F 94% 29.74 in 4.3 mi ESE 15.0 mph - N/A   Overcast
5:15 AM 64.4 °F 62.6 °F 94% 29.71 in 4.3 mi ESE 16.1 mph - N/A   Mostly Cloudy
5:45 AM 64.4 °F 62.6 °F 94% 29.71 in 3.7 mi East 15.0 mph - N/A   Mostly Cloudy
6:15 AM 64.4 °F 62.6 °F 94% 29.68 in 4.3 mi East 16.1 mph - N/A   Scattered Clouds
6:45 AM 64.4 °F 62.6 °F 94% 29.68 in 6.2 mi East 16.1 mph - N/A   Partly Cloudy
7:15 AM 66.2 °F 62.6 °F 88% 29.65 in 6.2 mi East 16.1 mph - N/A   Partly Cloudy
7:45 AM 66.2 °F 60.8 °F 83% 29.65 in 6.2 mi East 13.8 mph - N/A   Partly Cloudy
8:00 AM 66 °F 61 °F 80% 29.62 in 7 mi ESE 18.4 mph - -   Overcast
8:15 AM 66.2 °F 60.8 °F 83% 29.59 in 6.2 mi ESE 26.5 mph 38.0 mph N/A   Partly Cloudy
8:45 AM 66.2 °F 60.8 °F 83% 29.62 in - NE 17.3 mph - N/A   Clear
9:15 AM 69.8 °F 59.0 °F 68% 29.62 in - East 12.7 mph - N/A   Clear
9:45 AM 69.8 °F 60.8 °F 73% 29.65 in - ENE 13.8 mph - N/A   Clear
10:15 AM 71.6 °F 59.0 °F 64% 29.62 in - ENE 15.0 mph - N/A   Clear
10:45 AM 71.6 °F 60.8 °F 69% 29.65 in - ENE 15.0 mph - N/A   Clear
11:00 AM 71 °F 61 °F 63% 29.66 in 7 mi ENE 16.1 mph - -   Scattered Clouds
11:15 AM 71.6 °F 60.8 °F 69% 29.65 in 6.2 mi ENE 18.4 mph - N/A   Partly Cloudy
11:45 AM 71.6 °F 60.8 °F 69% 29.62 in 6.2 mi East 18.4 mph 29.9 mph N/A   Partly Cloudy
12:15 PM 71.6 °F 60.8 °F 69% 29.62 in 6.2 mi East 17.3 mph - N/A   Partly Cloudy
12:45 PM 73.4 °F 60.8 °F 65% 29.59 in - East 17.3 mph - N/A   Clear
1:15 PM 73.4 °F 60.8 °F 65% 29.59 in 6.2 mi East 17.3 mph - N/A   Partly Cloudy
1:45 PM 75.2 °F 59.0 °F 57% 29.59 in 6.2 mi East 16.1 mph - N/A   Partly Cloudy
2:00 PM 74 °F 60 °F 52% 29.58 in 9 mi ENE 17.3 mph - -  
2:15 PM 73.4 °F 60.8 °F 65% 29.59 in - ENE 18.4 mph - N/A   Clear
2:45 PM 71.6 °F 60.8 °F 69% 29.59 in - NE 19.6 mph - N/A   Clear
3:15 PM 71.6 °F 60.8 °F 69% 29.59 in - ENE 19.6 mph - N/A   Clear
3:45 PM 71.6 °F 60.8 °F 69% 29.59 in 6.2 mi NE 17.3 mph - N/A   Partly Cloudy
4:15 PM 69.8 °F 60.8 °F 73% 29.59 in 6.2 mi NE 21.9 mph - N/A   Partly Cloudy
4:45 PM 71.6 °F 60.8 °F 69% 29.62 in 6.2 mi NE 16.1 mph - N/A   Partly Cloudy
5:00 PM 71 °F 60 °F 60% 29.63 in 9 mi NNE 19.6 mph - -   Scattered Clouds
5:15 PM 71.6 °F 59.0 °F 64% 29.62 in 6.2 mi NE 18.4 mph - N/A   Scattered Clouds
5:45 PM 69.8 °F 59.0 °F 68% 29.65 in 6.2 mi North 19.6 mph - N/A   Mostly Cloudy
6:15 PM 71.6 °F 55.4 °F 57% 29.65 in 6.2 mi NNW 18.4 mph - N/A   Scattered Clouds
6:45 PM 71.6 °F 53.6 °F 53% 29.65 in 6.2 mi NW 17.3 mph - N/A   Partly Cloudy
7:15 PM 69.8 °F 55.4 °F 60% 29.65 in 6.2 mi NW 16.1 mph - N/A   Partly Cloudy
7:45 PM 68.0 °F 59.0 °F 73% 29.68 in 6.2 mi NW 18.4 mph - N/A   Partly Cloudy
8:00 PM 67 °F 59 °F 67% 29.68 in 9 mi NW 19.6 mph - -  
8:15 PM 66.2 °F 59.0 °F 78% 29.68 in 6.2 mi NW 19.6 mph - N/A   Partly Cloudy
8:45 PM 64.4 °F 59.0 °F 83% 29.68 in 6.2 mi NW 21.9 mph - N/A   Partly Cloudy
9:15 PM 64.4 °F 59.0 °F 83% 29.71 in 6.2 mi NW 17.3 mph - N/A   Partly Cloudy
9:45 PM 64.4 °F 59.0 °F 83% 29.71 in - NW 18.4 mph - N/A   Clear
10:15 PM 64.4 °F 59.0 °F 83% 29.74 in - NW 21.9 mph - N/A   Clear
10:45 PM 64.4 °F 57.2 °F 77% 29.74 in - NW 21.9 mph - N/A   Clear
11:00 PM 64 °F 57 °F 70% 29.76 in 9 mi NW 23.0 mph - -  
11:15 PM 64.4 °F 57.2 °F 77% 29.77 in - NNW 24.2 mph - N/A   Clear
11:45 PM 62.6 °F 57.2 °F 82% 29.77 in - NNW 18.4 mph - N/A   Clear